When you browse on this site, cookies collect data to enhance your experience and personalize the content and advertising you see.
Visit our Privacy Policy to learn more. By continuing to use the site, you agree to this use of cookies and data.
  • In Hungary
  • List of Countries
  • For 7 days
  • Water Temperature
  • Weather Map
  • News
  • Weather Widgets
  • user-avatar
    Login

    Hourly Weather Campos Sales

    Today, 4 April, Saturday

    Time Temperature Precipitation Wind Pressure Humidity
    00:00 +24°C° 0 mm 1 mps 709 mmHg 96%
    01:00 +23°C° 0 mm 1 mps 709 mmHg 96%
    02:00 +23°C° 0 mm 1 mps 709 mmHg 96%
    03:00 +23°C° 0 mm 1 mps 708 mmHg 96%
    04:00 +23°C° 0 mm 1 mps 709 mmHg 97%
    05:00 +23°C° 0 mm 1 mps 709 mmHg 97%
    06:00 +23°C° 0 mm 1 mps 709 mmHg 97%
    07:00 +24°C° 0 mm 2 mps 710 mmHg 93%
    08:00 +26°C° 0 mm 2 mps 710 mmHg 88%
    09:00 +27°C° 0 mm 2 mps 711 mmHg 83%
    10:00 +28°C° 0.1 mm 2 mps 711 mmHg 79%
    11:00 +29°C° 0.1 mm 2 mps 710 mmHg 75%
    12:00 +30°C° 0.1 mm 2 mps 710 mmHg 71%
    13:00 +30°C° 1 mm 2 mps 710 mmHg 73%
    14:00 +30°C° 1 mm 2 mps 709 mmHg 76%
    15:00 +30°C° 1 mm 2 mps 708 mmHg 78%
    16:00 +28°C° 0.6 mm 2 mps 708 mmHg 83%
    17:00 +27°C° 0.6 mm 2 mps 708 mmHg 89%
    18:00 +26°C° 0.6 mm 1 mps 708 mmHg 94%
    19:00 +25°C° 0.3 mm 1 mps 709 mmHg 94%
    20:00 +25°C° 0.3 mm 1 mps 709 mmHg 95%
    21:00 +25°C° 0.3 mm 1 mps 710 mmHg 96%
    22:00 +24°C° 0.1 mm 1 mps 710 mmHg 96%
    23:00 +24°C° 0.1 mm 1 mps 710 mmHg 96%

    Tomorrow, 5 April, Sunday

    Time Temperature Precipitation Wind Pressure Humidity
    00:00 +24°C° 0.1 mm 1 mps 710 mmHg 95%
    01:00 +24°C° 0.2 mm 1 mps 709 mmHg 96%
    02:00 +24°C° 0.2 mm 2 mps 709 mmHg 97%
    03:00 +23°C° 0.2 mm 2 mps 709 mmHg 98%
    04:00 +23°C° 0 mm 2 mps 709 mmHg 98%
    05:00 +23°C° 0 mm 2 mps 709 mmHg 98%
    06:00 +23°C° 0 mm 1 mps 710 mmHg 99%
    07:00 +24°C° 0 mm 2 mps 710 mmHg 95%
    08:00 +25°C° 0 mm 3 mps 711 mmHg 91%
    09:00 +26°C° 0 mm 3 mps 711 mmHg 88%
    10:00 +28°C° 0 mm 3 mps 711 mmHg 83%
    11:00 +29°C° 0 mm 3 mps 711 mmHg 77%
    12:00 +30°C° 0 mm 3 mps 710 mmHg 72%
    13:00 +30°C° 0.3 mm 3 mps 710 mmHg 72%
    14:00 +30°C° 0.3 mm 3 mps 709 mmHg 71%
    15:00 +31°C° 0.3 mm 3 mps 709 mmHg 71%
    16:00 +29°C° 0.2 mm 3 mps 709 mmHg 77%
    17:00 +28°C° 0.2 mm 2 mps 709 mmHg 83%
    18:00 +26°C° 0.2 mm 2 mps 709 mmHg 89%
    19:00 +26°C° 0.3 mm 2 mps 709 mmHg 91%
    20:00 +25°C° 0.3 mm 2 mps 710 mmHg 93%
    21:00 +24°C° 0.3 mm 1 mps 710 mmHg 95%
    22:00 +24°C° 0 mm 2 mps 710 mmHg 95%
    23:00 +24°C° 0 mm 2 mps 710 mmHg 95%

    Day after tomorrow, 6 April, Monday

    Time Temperature Precipitation Wind Pressure Humidity
    00:00 +24°C° 0 mm 2 mps 710 mmHg 95%
    01:00 +23°C° 0.1 mm 2 mps 710 mmHg 95%
    02:00 +23°C° 0.1 mm 2 mps 710 mmHg 96%
    03:00 +23°C° 0.1 mm 2 mps 709 mmHg 97%
    04:00 +23°C° 0 mm 2 mps 710 mmHg 97%
    05:00 +23°C° 0 mm 1 mps 710 mmHg 97%
    06:00 +23°C° 0 mm 1 mps 710 mmHg 97%
    07:00 +25°C° 0 mm 2 mps 711 mmHg 92%
    08:00 +26°C° 0 mm 3 mps 712 mmHg 86%
    09:00 +28°C° 0 mm 3 mps 712 mmHg 80%
    10:00 +29°C° 0 mm 3 mps 712 mmHg 73%
    11:00 +30°C° 0 mm 4 mps 712 mmHg 67%
    12:00 +33°C° 0 mm 4 mps 712 mmHg 60%
    13:00 +33°C° 0.1 mm 4 mps 711 mmHg 60%
    14:00 +32°C° 0.1 mm 4 mps 710 mmHg 60%
    15:00 +32°C° 0.1 mm 4 mps 710 mmHg 60%
    16:00 +30°C° 0.1 mm 3 mps 710 mmHg 68%
    17:00 +28°C° 0.1 mm 2 mps 710 mmHg 76%
    18:00 +26°C° 0.1 mm 2 mps 710 mmHg 85%
    19:00 +25°C° 0 mm 2 mps 710 mmHg 87%
    20:00 +25°C° 0 mm 1 mps 710 mmHg 90%
    21:00 +24°C° 0 mm 1 mps 710 mmHg 93%
    22:00 +24°C° 0 mm 1 mps 710 mmHg 92%
    23:00 +24°C° 0 mm 1 mps 710 mmHg 91%

    7 April, Tuesday

    Time Temperature Precipitation Wind Pressure Humidity
    00:00 +23°C° 0 mm 1 mps 710 mmHg 90%
    01:00 +23°C° 0 mm 1 mps 710 mmHg 90%
    02:00 +23°C° 0 mm 1 mps 709 mmHg 91%
    03:00 +23°C° 0 mm 1 mps 709 mmHg 92%
    04:00 +23°C° 0 mm 1 mps 709 mmHg 92%
    05:00 +23°C° 0 mm 1 mps 710 mmHg 93%
    06:00 +23°C° 0 mm 1 mps 710 mmHg 94%
    07:00 +24°C° 0 mm 2 mps 711 mmHg 88%
    08:00 +26°C° 0 mm 2 mps 712 mmHg 82%
    09:00 +28°C° 0 mm 3 mps 712 mmHg 76%
    10:00 +29°C° 0 mm 3 mps 712 mmHg 71%
    11:00 +30°C° 0 mm 3 mps 712 mmHg 67%
    12:00 +31°C° 0 mm 3 mps 712 mmHg 62%
    13:00 +31°C° 0 mm 3 mps 711 mmHg 62%
    14:00 +31°C° 0 mm 3 mps 710 mmHg 61%
    15:00 +31°C° 0 mm 3 mps 710 mmHg 61%
    16:00 +29°C° 0 mm 3 mps 710 mmHg 67%
    17:00 +28°C° 0 mm 2 mps 709 mmHg 72%
    18:00 +26°C° 0 mm 2 mps 709 mmHg 78%
    19:00 +25°C° 0 mm 2 mps 710 mmHg 81%
    20:00 +24°C° 0 mm 2 mps 710 mmHg 84%
    21:00 +23°C° 0 mm 1 mps 710 mmHg 87%
    22:00 +23°C° 0 mm 1 mps 710 mmHg 86%
    23:00 +23°C° 0 mm 1 mps 710 mmHg 86%

    8 April, Wednesday

    Time Temperature Precipitation Wind Pressure Humidity
    00:00 +23°C° 0 mm 1 mps 710 mmHg 86%
    01:00 +23°C° 0 mm 1 mps 709 mmHg 85%
    02:00 +22°C° 0 mm 1 mps 709 mmHg 84%
    03:00 +21°C° 0 mm 2 mps 709 mmHg 83%
    04:00 +21°C° 0 mm 2 mps 709 mmHg 84%
    05:00 +21°C° 0 mm 2 mps 709 mmHg 85%
    06:00 +21°C° 0 mm 2 mps 710 mmHg 86%
    07:00 +24°C° 0 mm 2 mps 710 mmHg 82%
    08:00 +26°C° 0 mm 3 mps 711 mmHg 78%
    09:00 +28°C° 0 mm 3 mps 712 mmHg 74%
    10:00 +29°C° 0 mm 3 mps 711 mmHg 71%
    11:00 +30°C° 0 mm 3 mps 711 mmHg 67%
    12:00 +31°C° 0 mm 3 mps 711 mmHg 64%
    13:00 +31°C° 0.3 mm 3 mps 710 mmHg 65%
    14:00 +31°C° 0.3 mm 3 mps 709 mmHg 67%
    15:00 +30°C° 0.3 mm 3 mps 709 mmHg 69%
    16:00 +29°C° 0.1 mm 2 mps 709 mmHg 76%
    17:00 +27°C° 0.1 mm 2 mps 709 mmHg 82%
    18:00 +26°C° 0.1 mm 2 mps 709 mmHg 89%
    19:00 +25°C° 0 mm 1 mps 709 mmHg 91%
    20:00 +24°C° 0 mm 1 mps 709 mmHg 93%
    21:00 +24°C° 0 mm 1 mps 709 mmHg 95%
    22:00 +23°C° 0 mm 1 mps 709 mmHg 95%
    23:00 +23°C° 0 mm 1 mps 709 mmHg 94%

    9 April, Thursday

    Time Temperature Precipitation Wind Pressure Humidity
    00:00 +21°C° 0 mm 0 mps 709 mmHg 94%
    01:00 +23°C° 0 mm 1 mps 709 mmHg 94%
    02:00 +22°C° 0 mm 1 mps 709 mmHg 94%
    03:00 +22°C° 0 mm 1 mps 708 mmHg 94%
    04:00 +22°C° 0 mm 1 mps 709 mmHg 95%
    05:00 +22°C° 0 mm 1 mps 709 mmHg 96%
    06:00 +22°C° 0 mm 1 mps 709 mmHg 97%
    07:00 +24°C° 0 mm 2 mps 710 mmHg 91%
    08:00 +26°C° 0 mm 2 mps 710 mmHg 84%
    09:00 +28°C° 0 mm 2 mps 711 mmHg 77%
    10:00 +29°C° 0 mm 2 mps 710 mmHg 74%
    11:00 +29°C° 0 mm 2 mps 710 mmHg 71%
    12:00 +30°C° 0 mm 2 mps 710 mmHg 68%
    13:00 +30°C° 0.1 mm 3 mps 709 mmHg 67%
    14:00 +31°C° 0.1 mm 3 mps 709 mmHg 66%
    15:00 +31°C° 0.1 mm 3 mps 708 mmHg 65%
    16:00 +29°C° 0.1 mm 3 mps 708 mmHg 73%
    17:00 +28°C° 0.1 mm 2 mps 708 mmHg 80%
    18:00 +26°C° 0.1 mm 2 mps 708 mmHg 87%
    19:00 +25°C° 0 mm 2 mps 708 mmHg 90%
    20:00 +24°C° 0 mm 1 mps 709 mmHg 93%
    21:00 +24°C° 0 mm 1 mps 709 mmHg 95%
    22:00 +23°C° 0 mm 1 mps 709 mmHg 95%
    23:00 +23°C° 0 mm 1 mps 709 mmHg 95%
    Show more